TITAN 3C TRANSTAGE DEB, 35502

Orbit data source: Space-Track

TITAN 3C TRANSTAGE DEB, 35502 is space debris in HEO originally from a launch on Tue, 21 Dec 1965 UTC launched from the Air Force Eastern Test Range (AFETR). Debris objects in space refer to the collection of defunct objects orbiting the Earth. Examples of debris include non-operational satellites, rocket bodies, and fragments generated from explosions, collisions, or faulty payload assembly.

Loading next visibility...
Identifier
35502, 1965-108DH
Orbit
HEO
Country
Flag of USUS
Related business
Manufacturer
Unknown
Mission
Spacecraft
Bus & Motor
Unknown
Mass
Unknown
Launch date (UTC)
1965-12-21 (60 years ago)
Launch vehicle
Unknown
Launch site
Air Force Eastern Test Range (AFETR)
Object type
Payload
Rocket body
Debris
Shape & HBR
Unknown shape, 1.1 m
Radar Cross Section
Small (<0.1 m²)

Expand to show TLE details & history
Last TLE update: 1 day ago

TLE from 1 day ago
0 TITAN 3C TRANSTAGE DEB
1 35502U 65108DH  26134.32545967  .00000113  00000-0  19245-3 0  9991
2 35502  26.6711 210.4862 6607681  66.4745 347.5920  3.03814647  1321
Epoch: 2026-05-14T07:48Z
TLE epoch observation values (Epoch: 2026-05-14T07:48:39.715Z)
Latitude
Longitude
-138.68218°
Altitude
2,588.067 km
Speed
8.313 km/s
True Right ascension
14h 02m 13s
True Declination
0° 00' 00"
Sunlit
Object was in full shadow at epoch
Visualization orbit readout
Latitude
Unknown
Longitude
Unknown
Altitude
Unknown
Speed
Unknown
Apparent Right ascension
Unknown
Apparent Declination
Unknown
Sunlit
N/A
Visualization observer readout
Local Sidereal Time
18:52:01
Azimuth
Unknown
Elevation
Unknown
Doppler factor
Unknown
Orbital elements
Apogee altitude
27,070.863 km
Perigee altitude
454.224 km
Semi-major axis
20,140.68 km
Eccentricity
0.66077
Inclination
26.6711°
RAAN
210.4862°
Arg. of periapsis
66.4745°
True anomaly
293.41361°
Mean anomaly
347.592°
Eccentric anomaly
326.9381°
Mean motion
0.75933 °/min
Orbital period
474.1 mins
BSTAR
0.00019245
Loading maneuver chart data...
Computing Atmospheric mass density...

Documentation

Showing up to 5 results
|